User: anonymous   Login
Location: Unspecified
(0.0000°N, 0.0000°E)
Time: 09:18:14
(UTC+00:00)
Language:

COSMOS 2482 - Orbit

View from above orbital plane
View from above orbital plane
View from above satellite
View from above satellite

Ground track
Ground track

The orbit data is extracted from the following two-line orbital elements,

1 39057U 13001A   17268.83435455 +.00000044 +00000-0 +24515-3 0  9998
2 39057 082.5004 042.4817 0027823 134.0226 226.3153 12.42887665212940
Epoch (UTC): 25 September 2017 20:01:28
Eccentricity: 0.0027823
inclination: 82.5004°
perigee height: 1472 km
apogee height: 1516 km
right ascension of ascending node: 42.4817°
argument of perigee: 134.0226°
revolutions per day: 12.42887665
mean anomaly at epoch: 226.3153°
orbit number at epoch: 21294

The dashed part of the orbit path shows where the satellite is in the earth's shadow,  

DLR